Location: Roland
(31.1349°N, 85.4372°W)
Time: 22:27:17
(UTC+00:00)

S-56A Canister/Altair - Pass Details

Date: 24 April 2021
Orbit: 632 x 2501 km, 38.9° (Epoch: 10 May)

Event Time Altitude Azimuth Distance (km) Brightness Sun altitude
Exits shadow 10:00:51 19° 263° (W) 1,530 8.5 -13.5°
Maximum altitude 10:03:08 30° 216° (SW) 1,139 7.9 -13.0°
Drops below altitude 10° 10:07:01 10° 155° (SSE) 2,018 9.7 -12.3°
Sets 10:09:37 0° 144° (SE) 3,003 10.8 -11.8°
